Weather History for Rocky Mount, NC

Change the Weather History Date:

Friday, March 2, 2012

  Actual Average Record
Temperature  
Mean Temperature 53 °F -  
Max Temperature 63 °F 60 °F 81 °F (1972)
Min Temperature 43 °F 36 °F 15 °F (1980)
Degree Days  
Heating Degree Days 12    
Growing Degree Days 3 (Base 50)    
Moisture  
Dew Point 49 °F    
Average Humidity 82    
Maximum Humidity 94    
Minimum Humidity 68    
Precipitation  
Precipitation 0.00 in - - ()
Sea Level Pressure  
Sea Level Pressure 29.89 in    
Wind  
Wind Speed 4 mph (East)    
Max Wind Speed 10 mph    
Max Gust Speed -    
Visibility 9 miles    
Events Rain    
Averages and records for this station are not official NWS values.
T = Trace of Precipitation, MM = Missing Value Source: NWS Daily Summary

Daily Weather History Graph

Daily Weather History Graph

Search for Another Location

Airport:

Trip Planner

Search our weather history database for the weather conditions in past years. The results will help you decide how hot, cold, wet, or windy it might be!

Date:

Astronomy

Mar. 02, 2012 Rise Set
Actual Time 6:39 AM EST 6:08 PM EST
Civil Twilight 6:14 AM EST 6:33 PM EST
Nautical Twilight 5:44 AM EST 7:03 PM EST
Astronomical Twilight 5:14 AM EST 7:32 PM EST
Moon 12:27 PM EST (3/2) 2:19 AM EST (3/2)
Length of Visible Light 12h 19m
Length of Day
11h 28m
Waxing Gibbous, 66% of the Moon is Illuminated
Mar 2
Waxing Gibbous
Mar 8
Full
Mar 14
Last Quarter
Mar 22
New
Mar 30
First Quarter

Hourly Weather History & Observations

Time (EST) Temp. Windchill Dew Point Humidity Pressure Visibility Wind Dir Wind Speed Gust Speed Precip Events Conditions
12:53 AM 46.9 °F - 43.0 °F 86% 29.91 in 10.0 mi Calm Calm - N/A   Clear
1:53 AM 48.0 °F - 37.9 °F 68% 29.94 in 10.0 mi NNE 10.4 mph - N/A   Clear
2:53 AM 51.1 °F - 44.1 °F 77% 29.94 in 10.0 mi NE 8.1 mph - N/A   Clear
3:53 AM 48.9 °F - 43.0 °F 80% 29.95 in 10.0 mi NE 8.1 mph - N/A   Clear
4:53 AM 48.0 °F - 41.0 °F 77% 29.97 in 10.0 mi NE 4.6 mph - N/A   Clear
5:53 AM 44.1 °F 41.5 °F 39.9 °F 85% 29.99 in 10.0 mi NE 4.6 mph - N/A   Clear
6:53 AM 43.0 °F 41.3 °F 39.9 °F 89% 29.99 in 10.0 mi NE 3.5 mph - N/A   Clear
7:53 AM 48.0 °F - 43.0 °F 83% 30.00 in 10.0 mi ENE 6.9 mph - N/A   Clear
8:53 AM 50.0 °F - 44.1 °F 80% 30.04 in 10.0 mi ENE 4.6 mph - N/A   Partly Cloudy
9:12 AM 51.8 °F - 44.6 °F 76% 30.04 in 10.0 mi ENE 4.6 mph - N/A   Mostly Cloudy
9:53 AM 52.0 °F - 45.0 °F 77% 30.01 in 10.0 mi Variable 4.6 mph - N/A   Overcast
10:15 AM 53.6 °F - 46.4 °F 77% 29.99 in 10.0 mi SE 6.9 mph - N/A   Overcast
10:53 AM 54.0 °F - 46.0 °F 75% 29.97 in 10.0 mi East 8.1 mph - N/A   Overcast
11:53 AM 55.0 °F - 46.9 °F 74% 29.98 in 10.0 mi East 3.5 mph - N/A   Overcast
12:39 PM 55.4 °F - 48.2 °F 77% 29.94 in 10.0 mi East 5.8 mph - N/A   Overcast
12:53 PM 55.9 °F - 50.0 °F 80% 29.94 in 10.0 mi East 5.8 mph - 0.00 in Rain Light Rain
1:53 PM 59.0 °F - 50.0 °F 72% 29.88 in 10.0 mi East 5.8 mph - 0.00 in   Overcast
2:49 PM 60.8 °F - 51.8 °F 72% 29.88 in 10.0 mi ESE 5.8 mph - N/A   Overcast
2:53 PM 61.0 °F - 52.0 °F 72% 29.88 in 10.0 mi Variable 3.5 mph - N/A   Overcast
3:53 PM 60.1 °F - 53.1 °F 78% 29.87 in 9.0 mi SE 4.6 mph - N/A   Overcast
4:15 PM 60.8 °F - 53.6 °F 77% 29.86 in 10.0 mi SSE 5.8 mph - N/A   Overcast
4:53 PM 61.0 °F - 54.0 °F 78% 29.85 in 10.0 mi Calm Calm - N/A   Overcast
5:53 PM 60.1 °F - 54.0 °F 80% 29.82 in 10.0 mi Variable 3.5 mph - N/A   Scattered Clouds
6:53 PM 57.9 °F - 54.0 °F 87% 29.79 in 9.0 mi Calm Calm - N/A   Clear
7:31 PM 55.4 °F - 53.6 °F 94% 29.79 in 8.0 mi Calm Calm - N/A   Mostly Cloudy
7:53 PM 57.9 °F - 54.0 °F 87% 29.78 in 8.0 mi Calm Calm - N/A   Overcast
8:10 PM 57.2 °F - 55.4 °F 94% 29.77 in 9.0 mi Calm Calm - N/A   Overcast
8:53 PM 55.9 °F - 54.0 °F 93% 29.77 in 7.0 mi Calm Calm - N/A   Mostly Cloudy
9:05 PM 55.4 °F - 53.6 °F 94% 29.76 in 7.0 mi Calm Calm - N/A   Scattered Clouds
9:53 PM 62.1 °F - 60.1 °F 93% 29.75 in 6.0 mi South 5.8 mph - N/A   Clear
10:53 PM 63.0 °F - 60.1 °F 90% 29.75 in 9.0 mi South 8.1 mph - N/A   Clear
11:53 PM 63.0 °F - 60.1 °F 90% 29.73 in 10.0 mi South 6.9 mph - N/A   Clear